Paso Robles, CA

10:03 AM PST on February 24, 2017 (GMT -0800)
Paso Robles Municipal

Weather History for KPRB - September, 2012

Change the Weather History Date:

Saturday, September 8, 2012

  Actual Average Record
Temperature  
Mean Temperature 77 °F 71 °F  
Max Temperature 99 °F 90 °F 105 °F (2004)
Min Temperature 55 °F 52 °F 41 °F (1994)
Degree Days  
Heating Degree Days 0 0  
Month to date heating degree days 0 0  
Since 1 July heating degree days 4 8  
Cooling Degree Days 12 6  
Month to date cooling degree days 71 55  
Year to date cooling degree days 902 788  
Growing Degree Days 26 (Base 50)    
Moisture  
Dew Point 48 °F    
Average Humidity 48    
Maximum Humidity 77    
Minimum Humidity 18    
Precipitation  
Precipitation 0.00 in 0.00 in 0.00 in (2017)
Month to date precipitation 0.00 0.01  
Year to date precipitation 5.88 8.91  
Since 1 July precipitation 0.01  
Sea Level Pressure  
Sea Level Pressure 29.95 in    
Wind  
Wind Speed 6 mph (NW)    
Max Wind Speed 22 mph    
Max Gust Speed 25 mph    
Visibility 10 miles    
Events      
T = Trace of Precipitation, MM = Missing Value Source: NWS Daily Summary

Daily Weather History Graph

Daily Weather History Graph

Search for Another Location

Airport or City:

Trip Planner

Search our weather history database for the weather conditions in past years. The results will help you decide how hot, cold, wet, or windy it might be!

Date:

Astronomy

Sep. 08, 2012 Rise Set
Actual Time 6:40 AM PDT 7:18 PM PDT
Civil Twilight 6:14 AM PDT 7:44 PM PDT
Nautical Twilight 5:44 AM PDT 8:15 PM PDT
Astronomical Twilight 5:13 AM PDT 8:46 PM PDT
Moon No Moon Rise 2:11 PM PDT (9/8)
Length of Visible Light 13h 30m
Length of Day
12h 38m
Waning Gibbous, 48% of the Moon is Illuminated
Sep 8
Waning Gibbous
Sep 15
New
Sep 22
First Quarter
Sep 29
Full
Oct 8
Last Quarter

Hourly Weather History & Observations

Time (PDT) Temp. Dew Point Humidity Pressure Visibility Wind Dir Wind Speed Gust Speed Precip Events Conditions
12:53 AM 61.0 °F 48.0 °F 62% 30.01 in 10.0 mi NW 11.5 mph - N/A   Clear
1:53 AM 59.0 °F 48.9 °F 69% 30.01 in 10.0 mi WNW 4.6 mph - N/A   Clear
2:53 AM 57.9 °F 48.9 °F 72% 30.01 in 10.0 mi Calm Calm - N/A   Clear
3:53 AM 57.0 °F 48.9 °F 74% 30.01 in 10.0 mi Calm Calm - N/A   Clear
4:53 AM 57.0 °F 48.9 °F 74% 30.01 in 10.0 mi Calm Calm - N/A   Clear
5:53 AM 55.9 °F 48.9 °F 77% 30.02 in 10.0 mi Calm Calm - N/A   Clear
6:53 AM 55.4 °F 48.2 °F 77% 30.04 in 10.0 mi Calm Calm - N/A   Clear
7:53 AM 59.0 °F 50.0 °F 72% 30.04 in 10.0 mi Calm Calm - N/A   Clear
8:53 AM 61.0 °F 50.0 °F 67% 30.03 in 10.0 mi Calm Calm - N/A   Clear
9:53 AM 68.0 °F 48.9 °F 50% 30.01 in 10.0 mi NW 3.5 mph - N/A   Clear
10:53 AM 77.0 °F 46.9 °F 34% 29.99 in 10.0 mi NNW 4.6 mph - N/A   Clear
11:53 AM 84.0 °F 46.9 °F 27% 29.96 in 10.0 mi WNW 4.6 mph - N/A   Clear
12:53 PM 91.0 °F 48.0 °F 23% 29.92 in 10.0 mi Calm Calm - N/A   Clear
1:53 PM 93.9 °F 48.0 °F 21% 29.89 in 10.0 mi Calm Calm - N/A   Clear
2:53 PM 97.0 °F 48.0 °F 19% 29.86 in 10.0 mi Variable 4.6 mph - N/A   Clear
3:53 PM 98.1 °F 48.9 °F 19% 29.84 in 10.0 mi NNW 11.5 mph - N/A   Clear
4:53 PM 97.0 °F 50.0 °F 20% 29.83 in 10.0 mi NW 12.7 mph - N/A   Clear
5:53 PM 89.1 °F 50.0 °F 26% 29.84 in 10.0 mi NW 15.0 mph 20.7 mph N/A   Clear
6:53 PM 81.0 °F 46.0 °F 29% 29.86 in 10.0 mi WNW 15.0 mph - N/A   Clear
7:53 PM 73.4 °F 46.4 °F 38% 29.91 in 10.0 mi NW 18.4 mph 25.3 mph N/A   Clear
8:53 PM 69.1 °F 48.0 °F 47% 29.92 in 10.0 mi WNW 17.3 mph - N/A   Clear
9:53 PM 66.9 °F 46.0 °F 47% 29.94 in 10.0 mi NW 9.2 mph - N/A   Clear
10:53 PM 66.0 °F 44.1 °F 45% 29.94 in 10.0 mi WNW 8.1 mph - N/A   Clear
11:53 PM 64.0 °F 45.0 °F 50% 29.94 in 10.0 mi WNW 9.2 mph - N/A   Clear